sat.trackr.live / text

‹ back to catalog

STARLINK-36608

NORAD 67854 · 2026-034E

PAYLOAD ACTIVE UNKNOWN

§ Identity

Operator
Country
US
Launch date
2026-02-20
Launch site
AFETR
Launch vehicle
Mass (kg)
RCS (m²)

Purposes: comms

External: N2YO · Heavens-Above · Gunter

§ Orbital elements

Epoch: 2026-09-19T19:01:50.608704Z

Period
93.85 min
Inclination
53.1613°
Eccentricity
0.0001524
Mean motion
15.34413234 rev/d
Perigee alt
461.6 km
Apogee alt
463.7 km
Semi-major
6,840.8 km
B*
5.2604e-4
RAAN
21.2454°
Arg perigee
102.7210°
Mean anomaly
257.3963°
Rev number
3,376

§ Raw data

STARLINK-366081 67854U 26034E   26262.79294686  .00017446  00000+0  52604-3 0  99952 67854  53.1613  21.2454 0001524 102.7210 257.3963 15.34413234 33768

JSON: /api/v1/satellites/67854 · /tle

For live sub-satellite position, see the globe view (requires WebGL).

§ Visibility from observer

Set your observer location to see the next 7 days of passes ≥ 10°. The values pass through the URL so the page stays shareable.

No JS? Fill the form by hand. The geolocation button needs JavaScript.